Regional Weather Roundup
Issued by NWS Cleveland, OH

Home | Current Version | Previous Version | Text Only | Print | Product List | Glossary Off
Versions: 1 2 3 4 5 6 7 8 9 10 11 12 13 14 15 16 17 18 19 20 21 22 23 24 25 26 27 28 29 30 31 32 33 34 35 36 37 38 39 40 41 42 43 44 45 46 47 48 49 50

000
ASUS41 KCLE 010600
RWRCLE
OHIO REGIONAL WEATHER ROUNDUP
NATIONAL WEATHER SERVICE WILMINGTON, OH
100 AM EST SUN MAR 01 2015

NOTE: "FAIR" INDICATES FEW OR NO CLOUDS BELOW 12,000 FEET WITH NO
SIGNIFICANT WEATHER AND/OR OBSTRUCTIONS TO VISIBILITY.

OHZ001>008-015>018-024>027-034-035-043-044-010700-
   NORTHWEST OHIO

CITY           SKY/WX    TMP DP  RH WIND       PRES   REMARKS
DEFIANCE       LGT SNOW  16  13  88 E6        30.48F FOG     WCI   7
FINDLAY        LGT SNOW  18  14  84 E6        30.46F FOG     WCI  10
TOLEDO EXPRESS LGT SNOW  14  12  92 E5        30.49F FOG     WCI   6
TOLEDO EXEC    LGT SNOW  15  11  83 E5        30.52F FOG     WCI   8
LIMA           LGT SNOW  19  15  84 SE7       30.44F FOG     WCI  10
$$

OHZ009>014-019>023-028>033-038-089-010700-
   NORTHEAST OHIO

CITY           SKY/WX    TMP DP  RH WIND       PRES   REMARKS
CLE-HOPKINS    LGT SNOW  18  14  84 NE6       30.55F VSB 3/4 WCI  10
CLE-LAKEFRONT  LGT SNOW  20  13  74 S9        30.53F WCI   9
CUY CO. ARPT   NOT AVBL
LORAIN-ELYRIA  LGT SNOW  15  12  88 S5        30.51F VSB 1   WCI   8
ASHTABULA      CLOUDY    16  -1  47 S7        30.53S WCI   6
AKRON-CANTON   LGT SNOW  19  13  77 SE5       30.49F VSB 1   WCI  12
WOOSTER        NOT AVBL
MANSFIELD      LGT SNOW  19  16  88 SE8       30.45F FOG     WCI   9
YOUNGSTOWN     FLURRIES  21   0  39 S5        30.51R WCI  15
$$

OHZ042-051>053-060>062-070>072-077>081-010700-
  SOUTHWEST OHIO

CITY           SKY/WX    TMP DP  RH WIND       PRES   REMARKS
CINC-COVINGTON LGT SNOW  24  20  84 E6        30.46F FOG     WCI  17
CINC-LUNKEN    LGT SNOW  23  20  88 NE5       30.51F FOG     WCI  17
HAMILTON       LGT SNOW  22  19  89 E3        30.49F FOG
DAYTON         NOT AVBL
WRIGHT-PAT AFB NOT AVBL
DAYTON GENERAL LGT SNOW  22  19  89 E6        30.45F FOG     WCI  14
WILMINGTON     LGT SNOW  21  17  84 E6        30.46F VSB 3/4 WCI  13
$$

OHZ036-037-039>041-045>050-054>059-063>069-073>076-082>088-010700-
  CENTRAL AND SOUTHEAST OHIO

CITY           SKY/WX    TMP DP  RH WIND       PRES   REMARKS
COLUMBUS       LGT SNOW  22  20  92 CALM      30.50S VSB 1
OSU AIRPORT    LGT SNOW  22  19  89 SE5       30.48F FOG     WCI  16
BOLTON FIELD   NOT AVBL
RICKENBACK AFB NOT AVBL
NEWARK         LGT SNOW  22  19  89 CALM      30.49F VSB 1
MARION         LGT SNOW  20  16  84 SE5       30.47F VSB 3/4 WCI  13
LANCASTER      CLOUDY    25  12  58 CALM      30.49F
ZANESVILLE     CLOUDY    25   7  46 N5        30.49F WCI  19
NEW PHILLY     CLOUDY    24  13  62 CALM      30.51F
$$



USA.gov is the U.S. government's official web portal to all federal, state and local government web resources and services.